Location: C�an Torras
(41.5052°N, 1.9280°E)
Time: 21:02:14
(UTC+00:00)

Meteor 1-21 Rocket - Pass Details

Date: 20 January 2021
Orbit: 834 x 906 km, 81.2° (Epoch: 02 March)

Event Time Altitude Azimuth Distance (km) Brightness Sun altitude
Rises 18:09:19 0° 174° (S) 3,372 7.4 -14.1°
Reaches altitude 10° 18:11:46 10° 170° (S) 2,439 6.6 -14.6°
Maximum altitude 18:17:07 53° 94° (E) 1,014 4.3 -15.5°
Drops below altitude 10° 18:22:29 10° 19° (NNE) 2,459 6.3 -16.5°
Sets 18:24:58 0° 15° (NNE) 3,403 7.1 -17.0°
